Dati Storici

Data ora Umidita' aria (%) Temperatura aria (°C) Rad globale (W/m²) Gonioanemometro (°) Tacoanemometro (m/s) Pioggia (mm)
10-11-2012 13:10 78.4 % 11.275 138.982 23.154 2.416 0
10-11-2012 13:00 78.4 % 10.996 74.556 32.628 1.21 0
10-11-2012 12:50 78 % 10.915 65.203 18.452 1.998 0
10-11-2012 12:40 77.5 % 10.909 110.395 22.159 2.3 0
10-11-2012 12:30 77.2 % 11.007 112.24 78.201 1.631 0
10-11-2012 12:20 77.3 % 10.916 98.241 34.816 2.206 0
10-11-2012 12:10 77.7 % 10.881 69.873 87.124 0.484 0
10-11-2012 12:00 78 % 10.778 53.254 20.722 1.767 0
10-11-2012 11:50 78.1 % 10.69 68.064 35.347 1.664 0
10-11-2012 11:40 78.4 % 10.568 96.243 22.537 2.143 0
10-11-2012 11:30 79.1 % 10.426 64.011 3.659 1.499 0
10-11-2012 11:20 79.4 % 10.197 72.87 8.985 2.141 0
10-11-2012 11:10 80 % 10.048 68.115 33.812 2.334 0
10-11-2012 11:00 80.4 % 9.872 80.715 20.595 2.655 0
10-11-2012 10:50 80.4 % 9.733 61.017 -0.11 2.251 0
10-11-2012 10:40 80.8 % 9.59 48.091 19.843 1.96 0
10-11-2012 10:30 81.1 % 9.509 30.976 30.367 2.503 0
10-11-2012 10:20 81.2 % 9.418 42.178 43.625 2.402 0
10-11-2012 10:10 81.4 % 9.44 22.088 333.226 1.43 0
10-11-2012 10:00 81.6 % 9.396 13.335 17.883 0.89 0

I dati sono presentati in modo automatico a scopo informativo. In seguito a verifica i dati possono subire modifiche o essere invalidati e non riportati negli archivi definitivi.